Regional Weather Roundup
Issued by NWS

Home | Current Version | Previous Version | Text Only | Print | Product List | Glossary On
Versions: 1 2 3 4 5 6 7 8 9 10 11 12 13 14 15 16 17 18 19 20 21 22 23 24 25 26 27 28 29 30 31 32 33 34 35 36 37 38 39 40 41 42 43 44 45 46 47 48 49 50
000
ASUS42 KKEY 180110
RWRKEY

FLORIDA REGIONAL WEATHER ROUNDUP FOR THE FLORIDA KEYS
NATIONAL WEATHER SERVICE KEY WEST FLORIDA
900 PM EDT WED SEP 17 2014

...SOUTH FLORIDA AND THE KEYS...

CITY           SKY/WX    TMP DP  RH WIND       PRES   REMARKS
FORT MYERS     PTCLDY    74  73  97 CALM      29.92R
SW REGIONAL AP MOCLDY    75  68  78 CALM      29.92S
NAPLES         CLOUDY    78  75  90 SW3       29.93R
MIAMI          CLOUDY    80  71  74 N3        29.95R
WEST KENDALL   CLOUDY    81  72  74 N5        29.94R
HOMESTEAD      CLOUDY    79  73  80 NW2       29.94R
MARATHON       CLOUDY    82  73  74 CALM      29.93R
BOCA CHICA NAS CLOUDY    81  73  76 CALM      29.94R
KEY WEST INTL  CLOUDY    84  73  69 CALM      29.95R HX  90

...INTERNATIONAL WEATHER...

CITY           SKY/WX    TMP DP  RH WIND       PRES   REMARKS
NASSAU BAHAMAS PTCLDY    75  70  83 S6        29.96R
CANCUN MEXICO  PTCLDY    81  75  83 NE3       29.94R
COZUMEL MEXICO PTCLDY    75  75 100 E3        29.94R

ADJACENT COASTAL WATERS...

STATION/POSITION TIME  SKY/WX   TEMP    WIND        PRES    WAVE
                                AIR SEA DIR/SP/G            HT/PER
                 (UTC)          (F)     (DEG/KT/KT) (MB)    (FT/S)
PULASKI SHOAL LI 0100            81     130/  2/  2 1013.9R
SAND KEY         0039            83     290/  4/  5 1013.8R
SOMBRERO KEY     0100            84     270/  2/  2 1014.6R
LONG KEY         0000            84 87  290/  7/  7 1014.1R
MOLASSES REEF    0100            82 86  310/  4/  5 1013.8R
FOWEY ROCKS      0100            81 85   10/  5/  6 1014.1R
Buoy 42080       NOT AVBL

$$


USA.gov is the U.S. government's official web portal to all federal, state and local government web resources and services.